Simultaneous Nadir Overpasses (SNOs) Predictions

Prediction of SNOs between AURA and NPP Satellite Orbit:

Table of predicted SNOs for the next 14.0 days since TLE Epoch: 8/26/2022
Index Date (AURA) Time (AURA) Lat,Lon (AURA) SZA (AURA ) Date (NPP) Time (NPP) Lat,Lon (NPP) SZA (NPP ) Distance(km) Time Diff (sec)
1 08/29/2022 10:36:06 79.18, -84.24 83.77 08/29/2022 10:34:55 79.17, -84.33 83.84 2.07 71
2 08/29/2022 11:25:25 -79.50, 85.50 96.69 08/29/2022 11:25:31 -79.50, 85.50 96.69 0.07 6
3 09/01/2022 02:52:30 79.30, 32.43 84.50 09/01/2022 02:51:48 79.30, 32.38 84.54 1.11 42
4 09/01/2022 03:41:50 -79.58,-158.03 95.90 09/01/2022 03:42:25 -79.58,-157.99 95.93 0.99 35
5 09/03/2022 19:08:53 79.45, 149.33 85.21 09/03/2022 19:08:40 79.45, 149.38 85.21 0.99 13
6 09/03/2022 19:58:13 -79.73, -41.07 95.19 09/03/2022 19:59:17 -79.73, -40.92 95.27 3.04 64
7 09/06/2022 10:35:58 -79.26, 96.33 93.61 09/06/2022 10:34:57 -79.26, 96.34 93.56 0.14 61
8 09/06/2022 11:25:18 79.48, -94.60 86.10 09/06/2022 11:25:35 79.47, -94.70 86.11 2.19 17
9 09/09/2022 02:52:23 -79.32,-147.39 92.75 09/09/2022 02:51:52 -79.32,-147.49 92.70 2.04 31



Historial Predications of SNOs between AURA and NPP
